TimeCDT,TemperatureF,Dew PointF,Humidity,Sea Level PressureIn,VisibilityMPH,Wind Direction,Wind SpeedMPH,Gust SpeedMPH,PrecipitationIn,Events,Conditions,WindDirDegrees,DateUTC
12:53 AM,55.9,43.0,62,30.12,10.0,NNE,12.7,-,N/A,,Clear,30,2013-05-23 05:53:00
1:53 AM,54.0,42.1,64,30.14,10.0,NE,11.5,-,N/A,,Clear,40,2013-05-23 06:53:00
2:53 AM,52.0,41.0,66,30.17,10.0,NE,10.4,-,N/A,,Clear,40,2013-05-23 07:53:00
3:53 AM,50.0,39.9,68,30.19,10.0,NE,11.5,-,N/A,,Clear,40,2013-05-23 08:53:00
4:53 AM,48.0,39.0,71,30.22,10.0,NE,10.4,-,N/A,,Clear,40,2013-05-23 09:53:00
5:53 AM,46.0,37.9,73,30.25,10.0,NE,9.2,-,N/A,,Clear,50,2013-05-23 10:53:00
6:53 AM,48.9,37.9,66,30.27,10.0,NE,10.4,-,N/A,,Clear,50,2013-05-23 11:53:00
7:53 AM,52.0,37.9,59,30.29,10.0,NE,13.8,-,N/A,,Clear,50,2013-05-23 12:53:00
8:53 AM,55.9,39.0,53,30.30,10.0,ENE,11.5,-,N/A,,Clear,60,2013-05-23 13:53:00
9:53 AM,59.0,39.0,48,30.32,10.0,ENE,11.5,-,N/A,,Clear,70,2013-05-23 14:53:00
10:53 AM,61.0,33.1,35,30.31,10.0,East,6.9,18.4,N/A,,Clear,80,2013-05-23 15:53:00
11:53 AM,63.0,30.0,29,30.31,10.0,East,8.1,16.1,N/A,,Clear,80,2013-05-23 16:53:00
12:53 PM,64.9,32.0,29,30.30,10.0,ENE,5.8,-,N/A,,Clear,70,2013-05-23 17:53:00
1:53 PM,66.9,28.9,24,30.30,10.0,East,10.4,-,N/A,,Clear,100,2013-05-23 18:53:00
2:53 PM,66.9,28.0,23,30.29,10.0,Variable,3.5,-,N/A,,Clear,0,2013-05-23 19:53:00
3:53 PM,68.0,26.1,21,30.28,10.0,SSE,11.5,21.9,N/A,,Clear,150,2013-05-23 20:53:00
4:53 PM,69.1,28.9,22,30.26,10.0,SE,9.2,-,N/A,,Clear,130,2013-05-23 21:53:00
5:53 PM,68.0,30.9,25,30.26,10.0,South,5.8,-,N/A,,Clear,180,2013-05-23 22:53:00
6:53 PM,68.0,27.0,21,30.25,10.0,SE,10.4,-,N/A,,Clear,130,2013-05-23 23:53:00
7:53 PM,66.9,33.1,28,30.24,10.0,SSE,5.8,-,N/A,,Clear,150,2013-05-24 00:53:00
8:53 PM,64.0,27.0,25,30.25,10.0,SSE,8.1,-,N/A,,Clear,150,2013-05-24 01:53:00
9:53 PM,60.1,28.0,30,30.27,10.0,SSE,6.9,-,N/A,,Clear,150,2013-05-24 02:53:00
10:53 PM,57.9,28.0,32,30.28,10.0,SSE,6.9,-,N/A,,Clear,150,2013-05-24 03:53:00
11:53 PM,55.9,28.0,34,30.28,10.0,SE,6.9,-,N/A,,Clear,140,2013-05-24 04:53:00